Time,TemperatureF,DewpointF,PressureIn,WindDirection,WindDirectionDegrees,WindSpeedMPH,WindSpeedGustMPH,Humidity,HourlyPrecipIn,Conditions,Clouds,dailyrainin,SoftwareType,DateUTC
2015-07-02 00:00:00,48.0,44.9,29.98,East,84,1.0,1.0,89,0.00,,,0.00,Wunderground v.1.15,2015-07-02 08:00:00,
2015-07-02 00:10:00,48.0,45.2,29.98,ESE,109,1.0,1.0,90,0.00,,,0.00,Wunderground v.1.15,2015-07-02 08:10:00,
2015-07-02 00:15:00,48.1,45.3,29.98,NNE,28,1.0,2.0,90,0.00,,,0.00,Wunderground v.1.15,2015-07-02 08:15:00,
2015-07-02 00:20:00,48.1,45.3,29.98,ESE,104,1.0,2.0,90,0.00,,,0.00,Wunderground v.1.15,2015-07-02 08:20:00,
2015-07-02 00:30:00,48.4,45.6,29.98,East,94,2.0,2.0,90,0.00,,,0.00,Wunderground v.1.15,2015-07-02 08:30:00,
2015-07-02 00:35:00,48.5,45.7,29.98,East,96,1.0,5.0,90,0.00,,,0.00,Wunderground v.1.15,2015-07-02 08:35:00,
2015-07-02 00:40:00,48.6,45.8,29.98,ESE,105,1.0,5.0,90,0.00,,,0.00,Wunderground v.1.15,2015-07-02 08:40:00,
2015-07-02 00:45:00,48.7,45.9,29.98,SE,134,1.0,5.0,90,0.00,,,0.00,Wunderground v.1.15,2015-07-02 08:45:00,
2015-07-02 00:50:00,48.8,46.0,29.98,SSE,154,1.0,5.0,90,0.00,,,0.00,Wunderground v.1.15,2015-07-02 08:50:00,
2015-07-02 00:55:00,48.9,46.1,29.98,SSE,154,1.0,5.0,90,0.00,,,0.00,Wunderground v.1.15,2015-07-02 08:55:00,
2015-07-02 01:05:00,49.0,45.9,29.98,SSE,166,1.0,3.0,89,0.00,,,0.00,Wunderground v.1.15,2015-07-02 09:05:00,
2015-07-02 01:10:00,49.0,45.9,29.98,SSE,166,1.0,1.0,89,0.00,,,0.00,Wunderground v.1.15,2015-07-02 09:10:00,
2015-07-02 01:15:00,48.9,45.8,29.98,SSE,166,0.0,1.0,89,0.00,,,0.00,Wunderground v.1.15,2015-07-02 09:15:00,
2015-07-02 01:20:00,48.9,46.1,29.98,SSE,166,0.0,1.0,90,0.00,,,0.00,Wunderground v.1.15,2015-07-02 09:20:00,
2015-07-02 01:25:00,48.8,46.0,29.98,SSE,166,1.0,1.0,90,0.00,,,0.00,Wunderground v.1.15,2015-07-02 09:25:00,
2015-07-02 01:30:00,48.7,45.9,29.98,SSE,166,0.0,0.0,90,0.00,,,0.00,Wunderground v.1.15,2015-07-02 09:30:00,
2015-07-02 01:40:00,48.5,45.7,29.98,SSE,166,0.0,3.0,90,0.00,,,0.00,Wunderground v.1.15,2015-07-02 09:40:00,
2015-07-02 01:45:00,48.4,45.6,29.98,SSE,166,0.0,3.0,90,0.00,,,0.00,Wunderground v.1.15,2015-07-02 09:45:00,
2015-07-02 01:50:00,48.2,45.4,29.97,SSE,166,0.0,3.0,90,0.00,,,0.00,Wunderground v.1.15,2015-07-02 09:50:00,
2015-07-02 01:55:00,48.1,45.3,29.97,SSE,166,0.0,3.0,90,0.00,,,0.00,Wunderground v.1.15,2015-07-02 09:55:00,
2015-07-02 02:00:00,47.9,45.4,29.97,SSE,166,0.0,0.0,91,0.00,,,0.00,Wunderground v.1.15,2015-07-02 10:00:00,
2015-07-02 02:10:00,47.6,45.4,29.97,SSE,166,0.0,0.0,92,0.00,,,0.00,Wunderground v.1.15,2015-07-02 10:10:00,
2015-07-02 02:15:00,47.5,45.3,29.97,SSE,166,0.0,0.0,92,0.00,,,0.00,Wunderground v.1.15,2015-07-02 10:15:00,
2015-07-02 02:20:00,47.4,45.2,29.97,SSE,166,0.0,0.0,92,0.00,,,0.00,Wunderground v.1.15,2015-07-02 10:20:00,
2015-07-02 02:25:00,47.4,45.5,29.97,SSE,166,0.0,0.0,93,0.00,,,0.00,Wunderground v.1.15,2015-07-02 10:25:00,
2015-07-02 02:30:00,47.5,45.6,29.97,SSE,166,0.0,0.0,93,0.00,,,0.00,Wunderground v.1.15,2015-07-02 10:30:00,
2015-07-02 02:35:00,47.5,45.6,29.97,SSE,166,0.0,3.0,93,0.00,,,0.00,Wunderground v.1.15,2015-07-02 10:35:00,
2015-07-02 02:40:00,47.5,45.6,29.97,SSE,166,0.0,3.0,93,0.00,,,0.00,Wunderground v.1.15,2015-07-02 10:40:00,
2015-07-02 02:45:00,47.6,45.7,29.97,SE,138,0.0,3.0,93,0.00,,,0.00,Wunderground v.1.15,2015-07-02 10:45:00,
2015-07-02 02:55:00,47.7,45.8,29.97,SE,138,0.0,3.0,93,0.00,,,0.00,Wunderground v.1.15,2015-07-02 10:55:00,
2015-07-02 03:00:00,47.7,45.8,29.97,SE,138,0.0,0.0,93,0.00,,,0.00,Wunderground v.1.15,2015-07-02 11:00:00,
2015-07-02 03:10:00,47.8,45.6,29.96,ESE,112,1.0,1.0,92,0.00,,,0.00,Wunderground v.1.15,2015-07-02 11:10:00,
2015-07-02 03:15:00,47.9,46.0,29.96,ENE,59,1.0,1.0,93,0.00,,,0.00,Wunderground v.1.15,2015-07-02 11:15:00,
2015-07-02 03:20:00,47.9,46.0,29.96,ENE,59,1.0,1.0,93,0.00,,,0.00,Wunderground v.1.15,2015-07-02 11:20:00,
2015-07-02 03:30:00,47.9,45.7,29.96,ENE,60,1.0,1.0,92,0.00,,,0.00,Wunderground v.1.15,2015-07-02 11:30:00,
2015-07-02 03:35:00,47.8,45.6,29.96,ENE,77,1.0,2.0,92,0.00,,,0.00,Wunderground v.1.15,2015-07-02 11:35:00,
2015-07-02 03:40:00,47.8,45.9,29.96,ENE,76,1.0,1.0,93,0.00,,,0.00,Wunderground v.1.15,2015-07-02 11:40:00,
2015-07-02 03:45:00,47.8,45.9,29.96,ENE,76,1.0,2.0,93,0.00,,,0.00,Wunderground v.1.15,2015-07-02 11:45:00,
2015-07-02 03:50:00,47.8,45.9,29.96,ENE,76,0.0,2.0,93,0.00,,,0.00,Wunderground v.1.15,2015-07-02 11:50:00,
2015-07-02 03:55:00,47.7,45.8,29.96,ENE,76,1.0,2.0,93,0.00,,,0.00,Wunderground v.1.15,2015-07-02 11:55:00,
2015-07-02 04:00:00,47.6,45.7,29.96,ENE,76,1.0,1.0,93,0.00,,,0.00,Wunderground v.1.15,2015-07-02 12:00:00,
2015-07-02 04:10:00,47.6,46.0,29.95,ENE,76,0.0,1.0,94,0.00,,,0.00,Wunderground v.1.15,2015-07-02 12:10:00,
2015-07-02 04:15:00,47.6,45.7,29.95,ENE,76,1.0,1.0,93,0.00,,,0.00,Wunderground v.1.15,2015-07-02 12:15:00,
2015-07-02 04:20:00,47.5,45.9,29.95,ENE,76,1.0,1.0,94,0.00,,,0.00,Wunderground v.1.15,2015-07-02 12:20:00,
2015-07-02 04:25:00,47.5,45.6,29.95,ENE,76,0.0,1.0,93,0.00,,,0.00,Wunderground v.1.15,2015-07-02 12:25:00,
2015-07-02 04:30:00,47.5,45.9,29.95,ENE,76,0.0,0.0,94,0.00,,,0.00,Wunderground v.1.15,2015-07-02 12:30:00,
2015-07-02 04:35:00,47.4,45.8,29.95,ENE,76,0.0,2.0,94,0.00,,,0.00,Wunderground v.1.15,2015-07-02 12:35:00,
2015-07-02 04:45:00,47.4,45.8,29.95,ENE,76,0.0,2.0,94,0.00,,,0.00,Wunderground v.1.15,2015-07-02 12:45:00,
2015-07-02 04:50:00,47.3,45.7,29.95,ENE,76,0.0,2.0,94,0.00,,,0.00,Wunderground v.1.15,2015-07-02 12:50:00,
2015-07-02 04:55:00,47.3,45.7,29.95,ENE,76,0.0,2.0,94,0.00,,,0.00,Wunderground v.1.15,2015-07-02 12:55:00,
2015-07-02 05:00:00,47.3,45.7,29.95,ENE,76,0.0,0.0,94,0.00,,,0.00,Wunderground v.1.15,2015-07-02 13:00:00,
2015-07-02 05:10:00,47.4,45.8,29.95,ENE,76,0.0,0.0,94,0.00,,,0.00,Wunderground v.1.15,2015-07-02 13:10:00,
2015-07-02 05:20:00,47.4,45.8,29.95,ENE,76,0.0,0.0,94,0.00,,,0.00,Wunderground v.1.15,2015-07-02 13:20:00,
2015-07-02 05:25:00,47.4,45.8,29.95,ENE,76,0.0,0.0,94,0.00,,,0.00,Wunderground v.1.15,2015-07-02 13:25:00,
2015-07-02 05:30:00,47.4,45.8,29.95,ENE,76,0.0,0.0,94,0.00,,,0.00,Wunderground v.1.15,2015-07-02 13:30:00,
2015-07-02 05:35:00,47.5,45.9,29.95,ENE,76,0.0,2.0,94,0.00,,,0.00,Wunderground v.1.15,2015-07-02 13:35:00,
2015-07-02 05:40:00,47.5,45.9,29.95,ENE,76,0.0,2.0,94,0.00,,,0.00,Wunderground v.1.15,2015-07-02 13:40:00,
2015-07-02 05:45:00,47.5,45.9,29.95,ENE,76,0.0,2.0,94,0.00,,,0.00,Wunderground v.1.15,2015-07-02 13:45:00,
2015-07-02 05:55:00,47.7,46.1,29.95,ENE,76,0.0,2.0,94,0.00,,,0.00,Wunderground v.1.15,2015-07-02 13:55:00,
2015-07-02 06:00:00,47.7,46.1,29.95,ENE,76,0.0,0.0,94,0.00,,,0.00,Wunderground v.1.15,2015-07-02 14:00:00,
2015-07-02 06:10:00,47.8,46.2,29.95,ENE,76,0.0,0.0,94,0.00,,,0.00,Wunderground v.1.15,2015-07-02 14:10:00,
2015-07-02 06:15:00,47.9,46.3,29.95,ENE,76,0.0,0.0,94,0.00,,,0.00,Wunderground v.1.15,2015-07-02 14:15:00,
2015-07-02 06:20:00,47.9,46.3,29.95,ENE,76,0.0,0.0,94,0.00,,,0.00,Wunderground v.1.15,2015-07-02 14:20:00,
2015-07-02 06:30:00,48.0,46.4,29.95,ENE,76,0.0,0.0,94,0.00,,,0.00,Wunderground v.1.15,2015-07-02 14:30:00,
2015-07-02 06:35:00,48.1,46.5,29.95,ENE,76,0.0,0.0,94,0.00,,,0.00,Wunderground v.1.15,2015-07-02 14:35:00,
2015-07-02 06:40:00,48.1,46.5,29.95,ENE,76,0.0,0.0,94,0.00,,,0.00,Wunderground v.1.15,2015-07-02 14:40:00,
2015-07-02 06:45:00,48.2,46.3,29.95,ENE,76,0.0,0.0,93,0.00,,,0.00,Wunderground v.1.15,2015-07-02 14:45:00,
2015-07-02 06:50:00,48.3,46.4,29.95,ENE,76,0.0,0.0,93,0.00,,,0.00,Wunderground v.1.15,2015-07-02 14:50:00,
2015-07-02 06:55:00,48.4,46.5,29.95,ENE,76,0.0,0.0,93,0.00,,,0.00,Wunderground v.1.15,2015-07-02 14:55:00,
2015-07-02 07:00:00,48.5,46.6,29.95,ENE,76,0.0,0.0,93,0.00,,,0.00,Wunderground v.1.15,2015-07-02 15:00:00,
2015-07-02 07:10:00,48.7,46.8,29.95,ENE,76,0.0,0.0,93,0.00,,,0.00,Wunderground v.1.15,2015-07-02 15:10:00,
2015-07-02 07:15:00,48.9,47.0,29.95,ENE,76,0.0,1.0,93,0.00,,,0.00,Wunderground v.1.15,2015-07-02 15:15:00,
2015-07-02 07:20:00,49.0,47.1,29.95,ENE,76,0.0,0.0,93,0.00,,,0.00,Wunderground v.1.15,2015-07-02 15:20:00,
2015-07-02 07:25:00,49.1,46.9,29.95,ENE,76,0.0,0.0,92,0.00,,,0.00,Wunderground v.1.15,2015-07-02 15:25:00,
2015-07-02 07:30:00,49.2,47.0,29.95,NNE,14,0.0,0.0,92,0.00,,,0.00,Wunderground v.1.15,2015-07-02 15:30:00,
2015-07-02 07:35:00,49.3,47.1,29.95,NNE,17,1.0,1.0,92,0.00,,,0.00,Wunderground v.1.15,2015-07-02 15:35:00,
2015-07-02 07:45:00,49.5,47.3,29.95,NNE,17,1.0,1.0,92,0.00,,,0.00,Wunderground v.1.15,2015-07-02 15:45:00,
2015-07-02 07:50:00,49.7,47.2,29.95,West,266,1.0,1.0,91,0.00,,,0.00,Wunderground v.1.15,2015-07-02 15:50:00,
2015-07-02 07:55:00,49.9,47.4,29.95,NNE,14,1.0,1.0,91,0.00,,,0.00,Wunderground v.1.15,2015-07-02 15:55:00,
2015-07-02 08:00:00,50.1,47.6,29.95,NNE,14,0.0,0.0,91,0.00,,,0.00,Wunderground v.1.15,2015-07-02 16:00:00,
2015-07-02 08:10:00,50.6,47.8,29.95,North,5,1.0,1.0,90,0.00,,,0.00,Wunderground v.1.15,2015-07-02 16:10:00,
2015-07-02 08:20:00,51.0,47.6,29.95,SW,215,1.0,1.0,88,0.00,,,0.00,Wunderground v.1.15,2015-07-02 16:20:00,
2015-07-02 08:25:00,51.0,47.9,29.95,SW,215,1.0,2.0,89,0.00,,,0.00,Wunderground v.1.15,2015-07-02 16:25:00,
2015-07-02 08:30:00,51.1,48.0,29.95,NNE,23,1.0,1.0,89,0.00,,,0.00,Wunderground v.1.15,2015-07-02 16:30:00,
2015-07-02 08:35:00,51.3,48.2,29.95,NNE,22,1.0,2.0,89,0.00,,,0.00,Wunderground v.1.15,2015-07-02 16:35:00,
2015-07-02 08:40:00,51.5,48.1,29.95,South,177,1.0,2.0,88,0.00,,,0.00,Wunderground v.1.15,2015-07-02 16:40:00,
2015-07-02 08:45:00,51.8,48.4,29.95,South,177,1.0,2.0,88,0.00,,,0.00,Wunderground v.1.15,2015-07-02 16:45:00,
2015-07-02 08:50:00,52.0,48.3,29.95,SW,236,1.0,2.0,87,0.00,,,0.00,Wunderground v.1.15,2015-07-02 16:50:00,
2015-07-02 09:00:00,52.3,48.5,29.95,SSW,204,1.0,1.0,87,0.00,,,0.00,Wunderground v.1.15,2015-07-02 17:00:00,
2015-07-02 09:10:00,52.8,48.4,29.96,SSW,200,1.0,3.0,85,0.00,,,0.00,Wunderground v.1.15,2015-07-02 17:10:00,
2015-07-02 09:15:00,52.9,48.2,29.96,South,177,1.0,3.0,84,0.00,,,0.00,Wunderground v.1.15,2015-07-02 17:15:00,
2015-07-02 09:20:00,53.0,48.3,29.96,SSE,167,1.0,1.0,84,0.00,,,0.00,Wunderground v.1.15,2015-07-02 17:20:00,
2015-07-02 09:25:00,53.1,48.1,29.96,South,186,1.0,1.0,83,0.00,,,0.00,Wunderground v.1.15,2015-07-02 17:25:00,